Weather History for Columbia Airport, CA

Change the Weather History Date:

Thursday, May 8, 2014

  Actual Average (KMOD) Record (KMOD)
Temperature  
Mean Temperature 56 °F -  
Max Temperature 66 °F 81 °F 98 °F (2001)
Min Temperature 46 °F 54 °F 37 °F (1933)
Degree Days  
Heating Degree Days 9 1  
Month to date heating degree days 15  
Since 1 July heating degree days 2149  
Cooling Degree Days 0 4  
Month to date cooling degree days 27  
Year to date cooling degree days 71  
Growing Degree Days 6 (Base 50)    
Moisture  
Dew Point 45 °F    
Average Humidity 66    
Maximum Humidity 93    
Minimum Humidity 32    
Precipitation  
Precipitation 0.00 in 0.02 in 0.37 in (1956)
Month to date precipitation 0.20  
Year to date precipitation 8.20  
Since 1 July precipitation 12.56  
Snow  
Snow 0.00 in - - ()
Month to date snowfall  
Since 1 July snowfall  
Snow Depth -    
Sea Level Pressure  
Sea Level Pressure 30.04 in    
Wind  
Wind Speed 2 mph (SSW)    
Max Wind Speed 7 mph    
Max Gust Speed -    
Visibility 10 miles    
Events      
T = Trace of Precipitation, MM = Missing Value Source: NWS Daily Summary

Daily Weather History Graph

Daily Weather History Graph

Search for Another Location

Airport:

Trip Planner

Search our weather history database for the weather conditions in past years. The results will help you decide how hot, cold, wet, or windy it might be!

Date:

Astronomy

May. 08, 2014 Rise Set
Actual Time 5:57 AM PDT 7:59 PM PDT
Civil Twilight 5:28 AM PDT 8:28 PM PDT
Nautical Twilight 4:53 AM PDT 9:03 PM PDT
Astronomical Twilight 4:15 AM PDT 9:41 PM PDT
Moon 2:10 PM PDT (5/8) 2:25 AM PDT (5/8)
Length of Visible Light 14h 59m
Length of Day
14h 01m
Waxing Gibbous, 66% of the Moon is Illuminated
May 8
Waxing Gibbous
May 14
Full
May 21
Last Quarter
May 28
New
Jun 5
First Quarter

Hourly Weather History & Observations

Time (PDT) Temp. Windchill Dew Point Humidity Pressure Visibility Wind Dir Wind Speed Gust Speed Precip Events Conditions
12:35 AM 48.2 °F - 42.8 °F 82% 29.97 in 10.0 mi Calm Calm - N/A   Partly Cloudy
1:15 AM 48.2 °F - 44.6 °F 87% 29.97 in 10.0 mi Calm Calm - N/A   Partly Cloudy
1:35 AM 48.2 °F - 44.6 °F 87% 29.96 in 10.0 mi Calm Calm - N/A   Scattered Clouds
1:55 AM 48.2 °F - 44.6 °F 87% 29.96 in 10.0 mi Calm Calm - N/A   Scattered Clouds
2:15 AM 48.2 °F - 44.6 °F 87% 29.96 in 10.0 mi Calm Calm - N/A   Partly Cloudy
2:35 AM 48.2 °F - 44.6 °F 87% 29.96 in 10.0 mi Calm Calm - N/A   Partly Cloudy
2:55 AM 48.2 °F - 44.6 °F 87% 29.96 in 10.0 mi Calm Calm - N/A   Partly Cloudy
3:15 AM 46.4 °F - 44.6 °F 93% 29.97 in 10.0 mi Calm Calm - N/A   Scattered Clouds
3:35 AM 46.4 °F - 44.6 °F 93% 29.97 in 10.0 mi Calm Calm - N/A   Scattered Clouds
3:55 AM 46.4 °F - 42.8 °F 87% 29.98 in 10.0 mi Calm Calm - N/A   Scattered Clouds
4:15 AM 46.4 °F - 42.8 °F 87% 29.98 in 10.0 mi Calm Calm - N/A   Scattered Clouds
4:35 AM 46.4 °F - 44.6 °F 93% 29.99 in 10.0 mi Calm Calm - N/A   Mostly Cloudy
4:55 AM 46.4 °F - 42.8 °F 87% 29.99 in 10.0 mi Calm Calm - N/A   Overcast
5:15 AM 46.4 °F 45.2 °F 44.6 °F 93% 29.99 in 10.0 mi NE 3.5 mph - N/A   Overcast
5:35 AM 46.4 °F - 44.6 °F 93% 29.98 in 10.0 mi Calm Calm - N/A   Overcast
5:55 AM 46.4 °F - 44.6 °F 93% 29.98 in 10.0 mi Calm Calm - N/A   Mostly Cloudy
6:15 AM 46.4 °F - 44.6 °F 93% 29.99 in 10.0 mi Calm Calm - N/A   Scattered Clouds
6:35 AM 46.4 °F - 44.6 °F 93% 30.00 in 10.0 mi Calm Calm - N/A   Clear
6:55 AM 46.4 °F - 44.6 °F 93% 30.01 in 10.0 mi Calm Calm - N/A   Clear
7:15 AM 50.0 °F - 44.6 °F 82% 30.01 in 10.0 mi ENE 3.5 mph - N/A   Clear
7:35 AM 53.6 °F - 44.6 °F 72% 30.02 in 10.0 mi Calm Calm - N/A   Partly Cloudy
7:55 AM 55.4 °F - 44.6 °F 67% 30.02 in 10.0 mi Calm Calm - N/A   Scattered Clouds
8:15 AM 57.2 °F - 46.4 °F 67% 30.03 in 10.0 mi South 3.5 mph - N/A   Scattered Clouds
8:35 AM 57.2 °F - 46.4 °F 67% 30.04 in 10.0 mi Calm Calm - N/A   Scattered Clouds
8:55 AM 57.2 °F - 46.4 °F 67% 30.04 in 10.0 mi South 3.5 mph - N/A   Mostly Cloudy
9:15 AM 59.0 °F - 46.4 °F 63% 30.04 in 10.0 mi South 4.6 mph - N/A   Mostly Cloudy
9:35 AM 60.8 °F - 46.4 °F 59% 30.05 in 10.0 mi South 4.6 mph - N/A   Mostly Cloudy
9:55 AM 59.0 °F - 46.4 °F 63% 30.06 in 10.0 mi SSE 3.5 mph - N/A   Overcast
10:15 AM 59.0 °F - 46.4 °F 63% 30.06 in 10.0 mi South 4.6 mph - N/A   Overcast
10:35 AM 59.0 °F - 46.4 °F 63% 30.07 in 10.0 mi South 5.8 mph - N/A   Overcast
10:55 AM 60.8 °F - 44.6 °F 55% 30.08 in 10.0 mi South 5.8 mph - N/A   Overcast
11:15 AM 62.6 °F - 42.8 °F 48% 30.08 in 10.0 mi South 3.5 mph - N/A   Overcast
11:35 AM 62.6 °F - 41.0 °F 45% 30.07 in 10.0 mi SSE 5.8 mph - N/A   Scattered Clouds
11:55 AM 64.4 °F - 41.0 °F 42% 30.07 in 10.0 mi South 6.9 mph - N/A   Scattered Clouds
12:15 PM 64.4 °F - 41.0 °F 42% 30.07 in 10.0 mi South 3.5 mph - N/A   Scattered Clouds
12:35 PM 66.2 °F - 41.0 °F 40% 30.07 in 10.0 mi South 6.9 mph - N/A   Mostly Cloudy
12:55 PM 64.4 °F - 39.2 °F 40% 30.07 in 10.0 mi SSE 3.5 mph - N/A   Mostly Cloudy
1:15 PM 66.2 °F - 39.2 °F 37% 30.07 in 10.0 mi South 5.8 mph - N/A   Mostly Cloudy
1:35 PM 66.2 °F - 39.2 °F 37% 30.07 in 10.0 mi South 6.9 mph - N/A   Mostly Cloudy
1:55 PM 66.2 °F - 35.6 °F 32% 30.07 in 10.0 mi SE 3.5 mph - N/A   Mostly Cloudy
2:15 PM 66.2 °F - 35.6 °F 32% 30.07 in 10.0 mi South 3.5 mph - N/A   Scattered Clouds
2:35 PM 66.2 °F - 39.2 °F 37% 30.07 in 10.0 mi SW 5.8 mph - N/A   Partly Cloudy
2:55 PM 66.2 °F - 39.2 °F 37% 30.06 in 10.0 mi Calm Calm - N/A   Clear
3:15 PM 66.2 °F - 37.4 °F 35% 30.06 in 10.0 mi SSW 4.6 mph - N/A   Scattered Clouds
3:35 PM 64.4 °F - 39.2 °F 40% 30.06 in 10.0 mi SW 5.8 mph - N/A   Mostly Cloudy
3:55 PM 66.2 °F - 39.2 °F 37% 30.05 in 10.0 mi SSE 5.8 mph - N/A   Unknown
4:15 PM 66.2 °F - 41.0 °F 40% 30.05 in 10.0 mi West 4.6 mph - N/A   Partly Cloudy
4:35 PM 66.2 °F - 41.0 °F 40% 30.05 in 10.0 mi SSW 5.8 mph - N/A   Partly Cloudy
4:55 PM 64.4 °F - 41.0 °F 42% 30.04 in 10.0 mi SSW 5.8 mph - N/A   Unknown
5:15 PM 64.4 °F - 42.8 °F 45% 30.04 in 10.0 mi South 5.8 mph - N/A   Mostly Cloudy
5:35 PM 64.4 °F - 44.6 °F 49% 30.04 in 10.0 mi SSW 5.8 mph - N/A   Overcast
5:55 PM 64.4 °F - 46.4 °F 52% 30.04 in 10.0 mi SSW 6.9 mph - N/A   Overcast
6:15 PM 62.6 °F - 48.2 °F 59% 30.05 in 10.0 mi SSW 6.9 mph - N/A   Overcast
6:35 PM 62.6 °F - 48.2 °F 59% 30.05 in 10.0 mi South 4.6 mph - N/A   Overcast
6:55 PM 62.6 °F - 48.2 °F 59% 30.05 in 10.0 mi SSW 4.6 mph - N/A   Overcast
7:15 PM 60.8 °F - 48.2 °F 63% 30.06 in 10.0 mi SW 6.9 mph - N/A   Overcast
7:35 PM 59.0 °F - 50.0 °F 72% 30.06 in 10.0 mi West 5.8 mph - N/A   Overcast
7:55 PM 59.0 °F - 50.0 °F 72% 30.06 in 10.0 mi WNW 3.5 mph - N/A   Mostly Cloudy
8:15 PM 59.0 °F - 50.0 °F 72% 30.06 in 10.0 mi Calm Calm - N/A   Overcast
8:35 PM 57.2 °F - 50.0 °F 77% 30.07 in 10.0 mi Calm Calm - N/A   Overcast
8:55 PM 57.2 °F - 50.0 °F 77% 30.07 in 10.0 mi Calm Calm - N/A   Overcast
9:15 PM 57.2 °F - 50.0 °F 77% 30.08 in 10.0 mi Calm Calm - N/A   Overcast
9:35 PM 57.2 °F - 50.0 °F 77% 30.08 in 10.0 mi West 3.5 mph - N/A   Overcast
9:55 PM 57.2 °F - 50.0 °F 77% 30.09 in 10.0 mi Calm Calm - N/A   Overcast
10:15 PM 57.2 °F - 50.0 °F 77% 30.09 in 10.0 mi Calm Calm - N/A   Overcast
10:35 PM 57.2 °F - 50.0 °F 77% 30.09 in 10.0 mi Calm Calm - N/A   Overcast
10:55 PM 57.2 °F - 50.0 °F 77% 30.09 in 10.0 mi Calm Calm - N/A   Overcast
11:15 PM 57.2 °F - 50.0 °F 77% 30.09 in 10.0 mi Calm Calm - N/A   Overcast
11:35 PM 57.2 °F - 50.0 °F 77% 30.10 in 10.0 mi West 4.6 mph - N/A   Overcast
11:55 PM 57.2 °F - 50.0 °F 77% 30.10 in 10.0 mi Calm Calm - N/A   Overcast